Weather reports worldwide

Advertisment
Tampico/Tamps, Mexico (76548): temperature & dewpoint: 16.07.2019 14:00:00 - 22.07.2019 14:00:00 (CDT)Tampico/Tamps, Mexico (76548): wind speed: 16.07.2019 14:00:00 - 22.07.2019 14:00:00 (CDT)Tampico/Tamps, Mexico (76548): wind direction: 16.07.2019 14:00:00 - 22.07.2019 14:00:00 (CDT)Tampico/Tamps, Mexico (76548): reduced air pressure: 16.07.2019 14:00:00 - 22.07.2019 14:00:00 (CDT)Tampico/Tamps, Mexico (76548): visibility: 16.07.2019 14:00:00 - 22.07.2019 14:00:00 (CDT)
Date & Time tt [°C] td [°C] ff [km/h] ff [kn] dd ppp [hPa] vv [km]
22.07.2019 14:00:00 - - - - - - -
22.07.2019 13:00:00 29,4 24,2 7 4 SW 1015,4 20
22.07.2019 12:00:00 - - - - - - -
22.07.2019 11:00:00 - - - - - - -
22.07.2019 10:00:00 27,6 24,6 7 4 NNE 1015,8 20
22.07.2019 09:00:00 - - - - - - -
22.07.2019 08:00:00 - - - - - - -
22.07.2019 07:00:00 26,8 25,2 7 4 SW 1014,2 12
22.07.2019 06:00:00 - - - - - - -
22.07.2019 05:00:00 - - - - - - -
22.07.2019 04:00:00 27,2 24,5 11 6 SSE 1014,5 10
22.07.2019 03:00:00 - - - - - - -
22.07.2019 02:00:00 - - - - - - -
22.07.2019 01:00:00 28,2 24,7 11 6 SE 1015,3 10
22.07.2019 00:00:00 - - - - - - -
21.07.2019 23:00:00 - - - - - - -
21.07.2019 22:00:00 28,6 24,8 14 8 SE 1014,8 10
21.07.2019 21:00:00 - - - - - - -
21.07.2019 20:00:00 - - - - - - -
21.07.2019 19:00:00 32,2 25,3 22 12 SE 1012,6 24
21.07.2019 18:00:00 - - - - - - -
21.07.2019 17:00:00 - - - - - - -
21.07.2019 16:00:00 32,2 25,3 14 8 SSE 1014,7 24
21.07.2019 15:00:00 - - - - - - -
21.07.2019 14:00:00 - - - - - - -
21.07.2019 13:00:00 35,0 26,9 7 4 SE 1016,3 24
21.07.2019 12:00:00 - - - - - - -
21.07.2019 11:00:00 - - - - - - -
21.07.2019 10:00:00 30,4 26,2 4 2 W 1014,5 22
21.07.2019 09:00:00 - - - - - - -
21.07.2019 08:00:00 - - - - - - -
21.07.2019 07:00:00 25,8 23,9 7 4 W 1014,2 12
21.07.2019 06:00:00 - - - - - - -
21.07.2019 05:00:00 - - - - - - -
21.07.2019 04:00:00 27,0 24,0 7 4 W 1015,2 10
21.07.2019 03:00:00 - - - - - - -
21.07.2019 02:00:00 - - - - - - -
21.07.2019 01:00:00 28,0 23,9 11 6 SE 1015,6 10
21.07.2019 00:00:00 - - - - - - -
20.07.2019 23:00:00 - - - - - - -
20.07.2019 22:00:00 28,4 23,8 14 8 ESE 1013,9 10
20.07.2019 21:00:00 - - - - - - -
20.07.2019 20:00:00 - - - - - - -
20.07.2019 19:00:00 32,0 25,3 14 8 ESE 1012,9 24
20.07.2019 18:00:00 - - - - - - -
20.07.2019 17:00:00 - - - - - - -
20.07.2019 16:00:00 34,0 25,5 14 8 ESE 1014,5 24
20.07.2019 15:00:00 - - - - - - -
20.07.2019 14:00:00 - - - - - - -
20.07.2019 13:00:00 34,8 26,9 11 6 ESE 1015,6 24
20.07.2019 12:00:00 - - - - - - -
20.07.2019 11:00:00 - - - - - - -
20.07.2019 10:00:00 28,4 24,6 4 2 NW 1015,8 22
20.07.2019 09:00:00 - - - - - - -
20.07.2019 08:00:00 - - - - - - -
20.07.2019 07:00:00 26,4 25,0 4 2 SW 1015,3 12
20.07.2019 06:00:00 - - - - - - -
20.07.2019 05:00:00 - - - - - - -
20.07.2019 04:00:00 27,0 24,6 7 4 SW 1015,9 10
20.07.2019 03:00:00 - - - - - - -
20.07.2019 02:00:00 - - - - - - -
20.07.2019 01:00:00 27,6 24,6 11 6 SE 1016,7 10
20.07.2019 00:00:00 - - - - - - -
19.07.2019 23:00:00 - - - - - - -
19.07.2019 22:00:00 28,4 24,3 14 8 ESE 1015,9 10
19.07.2019 21:00:00 - - - - - - -
19.07.2019 20:00:00 - - - - - - -
19.07.2019 19:00:00 32,0 25,0 18 10 SE 1013,6 22
19.07.2019 18:00:00 - - - - - - -
19.07.2019 17:00:00 - - - - - - -
19.07.2019 16:00:00 34,6 25,9 18 10 SE 1015,4 22
19.07.2019 15:00:00 - - - - - - -
19.07.2019 14:00:00 - - - - - - -
19.07.2019 13:00:00 33,0 25,6 11 6 SE 1017,3 24
19.07.2019 12:00:00 - - - - - - -
19.07.2019 11:00:00 - - - - - - -
19.07.2019 10:00:00 28,2 25,0 4 2 SSE 1018,2 22
19.07.2019 09:00:00 - - - - - - -
19.07.2019 08:00:00 - - - - - - -
19.07.2019 07:00:00 26,0 24,1 4 2 WSW 1015,7 12
19.07.2019 06:00:00 - - - - - - -
19.07.2019 05:00:00 - - - - - - -
19.07.2019 04:00:00 26,4 23,7 4 2 SE 1016,5 10
19.07.2019 03:00:00 - - - - - - -
19.07.2019 02:00:00 - - - - - - -
19.07.2019 01:00:00 27,0 24,3 7 4 SE 1017,5 10
19.07.2019 00:00:00 - - - - - - -
18.07.2019 23:00:00 - - - - - - -
18.07.2019 22:00:00 27,8 24,6 11 6 SE 1015,7 10
18.07.2019 21:00:00 - - - - - - -
18.07.2019 20:00:00 - - - - - - -
18.07.2019 19:00:00 32,0 25,3 11 6 ESE 1014,3 22
18.07.2019 18:00:00 - - - - - - -
18.07.2019 17:00:00 - - - - - - -
18.07.2019 16:00:00 35,6 26,7 18 10 ESE 1015,8 22
18.07.2019 15:00:00 - - - - - - -
18.07.2019 14:00:00 - - - - - - -
18.07.2019 13:00:00 34,0 27,0 11 6 ESE 1017,6 22
18.07.2019 12:00:00 - - - - - - -
18.07.2019 11:00:00 - - - - - - -
18.07.2019 10:00:00 28,2 25,0 4 2 SE 1018,4 22
18.07.2019 09:00:00 - - - - - - -
18.07.2019 08:00:00 - - - - - - -
18.07.2019 07:00:00 26,2 23,7 4 2 SE 1016,4 12
18.07.2019 06:00:00 - - - - - - -
18.07.2019 05:00:00 - - - - - - -
18.07.2019 04:00:00 - - - - - - -
18.07.2019 03:00:00 - - - - - - -
18.07.2019 02:00:00 - - - - - - -
18.07.2019 01:00:00 - - - - - - -
18.07.2019 00:00:00 - - - - - - -
17.07.2019 23:00:00 - - - - - - -
17.07.2019 22:00:00 27,4 24,1 11 6 SE 1016,6 10
17.07.2019 21:00:00 - - - - - - -
17.07.2019 20:00:00 - - - - - - -
17.07.2019 19:00:00 33,2 26,5 18 10 SE 1014,8 22
17.07.2019 18:00:00 - - - - - - -
17.07.2019 17:00:00 - - - - - - -
17.07.2019 16:00:00 34,4 27,9 14 8 E 1017,4 24
17.07.2019 15:00:00 - - - - - - -
17.07.2019 14:00:00 - - - - - - -
17.07.2019 13:00:00 30,2 25,4 7 4 E 1018,4 22
17.07.2019 12:00:00 - - - - - - -
17.07.2019 11:00:00 - - - - - - -
17.07.2019 10:00:00 28,2 25,5 4 2 ESE 1017,7 20
17.07.2019 09:00:00 - - - - - - -
17.07.2019 08:00:00 - - - - - - -
17.07.2019 07:00:00 27,0 24,8 4 2 SE 1016,9 12
17.07.2019 06:00:00 - - - - - - -
17.07.2019 05:00:00 - - - - - - -
17.07.2019 04:00:00 28,0 25,3 7 4 SE 1016,5 10
17.07.2019 03:00:00 - - - - - - -
17.07.2019 02:00:00 - - - - - - -
17.07.2019 01:00:00 28,8 25,6 11 6 SE 1017,5 10
17.07.2019 00:00:00 - - - - - - -
16.07.2019 23:00:00 - - - - - - -
16.07.2019 22:00:00 29,0 25,0 18 10 ESE 1015,8 10
16.07.2019 21:00:00 - - - - - - -
16.07.2019 20:00:00 - - - - - - -
16.07.2019 19:00:00 32,2 26,7 22 12 E 1013,6 22
16.07.2019 18:00:00 - - - - - - -
16.07.2019 17:00:00 - - - - - - -
16.07.2019 16:00:00 35,2 28,0 18 10 SE 1015,7 22
16.07.2019 15:00:00 - - - - - - -
16.07.2019 14:00:00 - - - - - - -

tt = temperature
td = dewpoint
ff = wind speed
dd = wind direction
ppp = reduced air pressure
vv = visibility

Next stations